Laurens, SC

1:29 PM EDT on April 23, 2018 (GMT -0400)
Laurens

Weather History for KLUX - August, 2014

Change the Weather History Date:

Tuesday, August 19, 2014

  Actual Average (KGSP) Record (KGSP)
Temperature  
Mean Temperature 79 °F -  
Max Temperature 87 °F 88 °F 99 °F (1925)
Min Temperature 69 °F 67 °F 59 °F (1905)
Cooling Degree Days 14    
Growing Degree Days 29 (Base 50)    
Moisture  
Dew Point 65 °F    
Average Humidity 67    
Maximum Humidity 100    
Minimum Humidity 33    
Precipitation  
Precipitation 0.03 in - - ()
Sea Level Pressure  
Sea Level Pressure 29.89 in    
Wind  
Wind Speed 5 mph (WSW)    
Max Wind Speed 12 mph    
Max Gust Speed 22 mph    
Visibility 10 miles    
Events Rain    
Averages and records for this station are not official NWS values.
T = Trace of Precipitation, MM = Missing Value Source: NWS Daily Summary

Daily Weather History Graph

Daily Weather History Graph

Search for Another Location

Airport or City:

Astronomy

Aug. 19, 2014 Rise Set
Actual Time 6:51 AM EDT 8:10 PM EDT
Civil Twilight 6:25 AM EDT 8:37 PM EDT
Nautical Twilight 5:53 AM EDT 9:08 PM EDT
Astronomical Twilight 5:20 AM EDT 9:41 PM EDT
Moon 1:46 AM EDT (8/19) 4:01 PM EDT (8/19)
Length of Visible Light 14h 11m
Length of Day
13h 19m
Waning Crescent, 29% of the Moon is Illuminated
Aug 19
Waning Crescent
Aug 25
New
Sep 2
First Quarter
Sep 8
Full
Sep 15
Last Quarter

Hourly Weather History & Observations

Time (EDT) Temp. Heat Index Dew Point Humidity Pressure Visibility Wind Dir Wind Speed Gust Speed Precip Events Conditions
12:15 AM 75.2 °F - 73.4 °F 94% 29.86 in 10.0 mi Calm Calm - N/A   Clear
12:35 AM 75.2 °F - 73.4 °F 94% 29.86 in 10.0 mi WSW 4.6 mph - N/A   Clear
12:55 AM 77.0 °F - 71.6 °F 83% 29.86 in 10.0 mi WSW 5.8 mph - N/A   Clear
1:15 AM 77.0 °F - 73.4 °F 89% 29.86 in 10.0 mi SW 5.8 mph - N/A   Clear
1:35 AM 75.2 °F - 71.6 °F 89% 29.86 in 10.0 mi SW 4.6 mph - N/A   Clear
1:55 AM 77.0 °F - 71.6 °F 83% 29.87 in 10.0 mi SW 5.8 mph - N/A   Clear
2:15 AM 75.2 °F - 69.8 °F 83% 29.88 in 10.0 mi WSW 5.8 mph - N/A   Scattered Clouds
2:35 AM 75.2 °F - 69.8 °F 83% 29.86 in 10.0 mi WSW 6.9 mph - N/A   Scattered Clouds
2:55 AM 73.4 °F - 71.6 °F 94% 29.86 in 10.0 mi WSW 5.8 mph - N/A   Clear
3:15 AM 73.4 °F - 71.6 °F 94% 29.86 in 10.0 mi SW 5.8 mph - N/A   Clear
3:35 AM 73.4 °F - 71.6 °F 94% 29.86 in 10.0 mi WSW 4.6 mph - N/A   Clear
3:55 AM 73.4 °F - 73.4 °F 100% 29.86 in 10.0 mi SW 6.9 mph - N/A   Clear
4:15 AM 71.6 °F - 71.6 °F 100% 29.86 in 10.0 mi SW 6.9 mph - N/A   Clear
4:35 AM 71.6 °F - - N/A% 29.86 in 10.0 mi SW 4.6 mph - N/A   Clear
4:55 AM 71.6 °F - - N/A% 29.86 in 10.0 mi SW 4.6 mph - N/A   Clear
5:15 AM 71.6 °F - - N/A% 29.87 in 10.0 mi WSW 5.8 mph - N/A   Clear
5:35 AM 71.6 °F - - N/A% 29.88 in 10.0 mi WSW 6.9 mph - N/A   Clear
5:55 AM 71.6 °F - - N/A% 29.88 in 10.0 mi WSW 4.6 mph - N/A   Clear
6:15 AM 71.6 °F - - N/A% 29.88 in 10.0 mi WSW 3.5 mph - N/A   Clear
6:35 AM 71.6 °F - - N/A% 29.88 in 10.0 mi SW 3.5 mph - N/A   Clear
7:15 AM 71.6 °F - - N/A% 29.89 in 10.0 mi SW 5.8 mph - N/A   Clear
7:35 AM - - - N/A% - - North - - N/A   Unknown
8:15 AM 73.4 °F - - N/A% 29.90 in 10.0 mi SW 6.9 mph - 0.03 in   Scattered Clouds
8:35 AM 73.4 °F - - N/A% 29.90 in 10.0 mi WSW 8.1 mph - 0.03 in   Scattered Clouds
8:55 AM 73.4 °F - 71.6 °F 94% 29.91 in 10.0 mi WSW 5.8 mph - 0.03 in   Scattered Clouds
9:15 AM 75.2 °F - 68.0 °F 78% 29.91 in 10.0 mi SW 10.4 mph - N/A   Scattered Clouds
9:35 AM 73.4 °F - 69.8 °F 88% 29.91 in 10.0 mi WSW 11.5 mph - N/A   Scattered Clouds
9:55 AM 73.4 °F - 69.8 °F 88% 29.91 in 10.0 mi SW 4.6 mph - N/A   Mostly Cloudy
10:15 AM 75.2 °F - 68.0 °F 78% 29.92 in 10.0 mi WSW 9.2 mph 16.1 mph N/A   Overcast
10:35 AM 75.2 °F - 68.0 °F 78% 29.92 in 10.0 mi West 6.9 mph - N/A   Overcast
10:55 AM 73.4 °F - 71.6 °F 94% 29.93 in 10.0 mi West 8.1 mph - N/A   Overcast
11:15 AM 75.2 °F - 71.6 °F 89% 29.93 in 10.0 mi SW 5.8 mph - N/A Rain Light Rain
11:35 AM 75.2 °F - 69.8 °F 83% 29.93 in 10.0 mi West 5.8 mph - N/A   Mostly Cloudy
11:55 AM 77.0 °F - 64.4 °F 65% 29.93 in 10.0 mi West 8.1 mph - N/A   Mostly Cloudy
12:15 PM 78.8 °F - 66.2 °F 65% 29.92 in 10.0 mi WSW 5.8 mph - N/A   Mostly Cloudy
12:35 PM 78.8 °F - 64.4 °F 61% 29.92 in 10.0 mi West 4.6 mph - N/A   Scattered Clouds
12:55 PM 80.6 °F 81.8 °F 62.6 °F 54% 29.91 in 10.0 mi WSW 3.5 mph - N/A   Scattered Clouds
1:15 PM 80.6 °F 81.8 °F 62.6 °F 54% 29.91 in 10.0 mi Calm Calm - N/A   Scattered Clouds
1:35 PM 82.4 °F 83.4 °F 62.6 °F 51% 29.91 in 10.0 mi SW 4.6 mph - N/A   Clear
1:55 PM 84.2 °F 84.4 °F 60.8 °F 45% 29.90 in 10.0 mi West 9.2 mph - N/A   Clear
2:15 PM 86.0 °F 85.4 °F 59.0 °F 40% 29.89 in 10.0 mi WNW 6.9 mph - N/A   Clear
2:35 PM 86.0 °F 85.4 °F 59.0 °F 40% 29.89 in 10.0 mi West 6.9 mph - N/A   Scattered Clouds
2:55 PM 86.0 °F 85.4 °F 59.0 °F 40% 29.88 in 10.0 mi West 6.9 mph - N/A   Scattered Clouds
3:15 PM 86.0 °F 84.9 °F 57.2 °F 37% 29.87 in 10.0 mi Calm Calm - N/A   Scattered Clouds
3:35 PM 87.8 °F 86.1 °F 55.4 °F 33% 29.86 in 10.0 mi NNW 4.6 mph - N/A   Clear
3:55 PM 87.8 °F 86.1 °F 55.4 °F 33% 29.86 in 10.0 mi WNW 6.9 mph - N/A   Scattered Clouds
4:15 PM 86.0 °F 84.9 °F 57.2 °F 37% 29.86 in 10.0 mi WNW 6.9 mph - N/A   Scattered Clouds
4:35 PM 87.8 °F 86.5 °F 57.2 °F 35% 29.85 in 10.0 mi WNW 6.9 mph - N/A   Scattered Clouds
5:15 PM 87.8 °F 86.1 °F 55.4 °F 33% 29.85 in 10.0 mi Calm Calm - N/A   Clear
5:35 PM 87.8 °F 86.1 °F 55.4 °F 33% 29.86 in 10.0 mi NW 4.6 mph - N/A   Clear
5:55 PM 86.0 °F 85.4 °F 59.0 °F 40% 29.87 in 10.0 mi NE 8.1 mph - N/A   Mostly Cloudy
6:15 PM 80.6 °F 81.1 °F 59.0 °F 48% 29.90 in 10.0 mi NNW 8.1 mph 21.9 mph N/A   Overcast
6:35 PM 78.8 °F - 59.0 °F 51% 29.89 in 10.0 mi North 8.1 mph - N/A   Mostly Cloudy
6:55 PM 77.0 °F - 60.8 °F 57% 29.89 in 10.0 mi NW 5.8 mph - N/A   Scattered Clouds
7:15 PM 77.0 °F - 60.8 °F 57% 29.89 in 10.0 mi NNW 4.6 mph - N/A   Scattered Clouds
7:35 PM 77.0 °F - 60.8 °F 57% 29.89 in 10.0 mi West 3.5 mph - N/A   Clear
7:55 PM 77.0 °F - 60.8 °F 57% 29.89 in 10.0 mi Calm Calm - N/A   Scattered Clouds
8:15 PM 77.0 °F - 60.8 °F 57% 29.90 in 10.0 mi Calm Calm - N/A   Scattered Clouds
8:35 PM 75.2 °F - 62.6 °F 65% 29.90 in 10.0 mi Calm Calm - N/A   Scattered Clouds
8:55 PM 75.2 °F - 62.6 °F 65% 29.90 in 10.0 mi ESE 4.6 mph - N/A   Scattered Clouds
9:15 PM 73.4 °F - 64.4 °F 73% 29.90 in 10.0 mi Calm Calm - N/A   Scattered Clouds
9:55 PM 71.6 °F - 71.6 °F 100% 29.91 in 10.0 mi NW 6.9 mph - N/A   Clear
10:35 PM 73.4 °F - - N/A% 29.92 in 10.0 mi Calm Calm - N/A   Mostly Cloudy
10:55 PM 71.6 °F - - N/A% 29.92 in 10.0 mi Calm Calm - N/A   Mostly Cloudy
11:15 PM 71.6 °F - - N/A% 29.92 in 10.0 mi SW 3.5 mph - N/A   Scattered Clouds
11:35 PM 71.6 °F - - N/A% 29.92 in 10.0 mi SW 3.5 mph - N/A   Clear
11:55 PM 69.8 °F - - N/A% 29.93 in 10.0 mi NNW 4.6 mph - N/A   Clear